Aérodrome :
LOGIN :

S'inscrire | Disclaimer

   EN    FR    IT 

 










Légende :    VFR   VFR Marginal   IFR   IFR Intensif   IFR Très Intensif
Visi : 
Plafond : 
>= 8 km
>= 3000ft
5 à 8 km
1000 à 3000 ft
1500m à 5 km
500 à 1000 ft
800 à 1500m
200 à 500 ft
< 800m
< 200 ft
Symboles :   Orages  Brouillard  Fortes neiges  Fortes précipitations  Vent > 20 kt
SIGMETs :   Divers  Orages  Givrage  Turbulence  Onde Orograph.  Cendres Volcan.







- Altitude de l'aérodrome : 1161 ft
- Code IATA : RJL


LELO - Logroño-Agoncillo

DERNIER METAR :
  • 190830Z VRB01KT 9999 FEW010 BKN060 12/10 Q1020

METARs EXPIRÉS :
  • 190800Z 04003KT 340V100 9999 FEW010 BKN060 11/09 Q1020
  • 190730Z 05005KT 010V080 9999 FEW010 BKN055 11/09 Q1019 RERA
  • 190700Z 06005KT 030V090 7000 -RA FEW010 BKN055 10/09 Q1019
  • 190630Z 06004KT 020V090 6000 RA FEW010 BKN055 10/09 Q1019
  • 190600Z 07006KT 020V110 5000 -RA FEW010 BKN060 10/09 Q1018

TAF TAF LELO
Valide du 19 à 09h jusqu'au 19 à 18h UTC


190800Z 1909/1918 09007KT 9999 FEW020
PROB30
TEMPO 1909/1910 3000 RA BKN012
Pas de NOTAMs connus pour ce terrain.



MET'MAP, la Météo Aéronautique d'un coup d'oeil ! - Copyright ORBIFLY Décembre 2007 - Disclaimer

ORBIFLY MET'MAP TEAM :

Programmation & Développement : Alexandra Zaïnal
Conception & Développement : Baudouin d'Aumeries
Co-Programmation & Développement : Marc-Olivier Méhu
Soutien technique & logistique : Manuel Goepfert

Contact : metmap@orbifly.com




SOURCES & CREDITS :

   NOAA